DELTA 1 DEB

基本信息
目录编号:
9975
目录名称:
DELTA 1 DEB
国际标识:
1973-086GE
轨道中心:
EARTH
物体状态:
在轨
发射日期:
1973-11-06 UTC
轨道信息
数据来源: 国际轨道数据
星历时间: 2026-09-09T17:40:59+0800
半长轴: 7865.956km
偏心率: 0.0099232
轨道倾角: 102.475°
近地点辐角: 57.556°
升交点赤经: 223.082°
平近点角: 95.160°
近地点: 1409.763km
远地点: 1565.875km
周期: 115.714分钟
每日圈数: 12.444446
详细信息
发射场:
AFWTR
轨道高度:
LEO
数据来源:
AOE Integration Group
参考系:
TEME
时间系统:
UTC
历元类型:
SGP4
2D轨道图
3D轨道图
轨道高度分析图
轨道倾角分析图
轨道综合分析图
查看轨道综合分析图